Hourly Data Report for October 04, 2017

All times are specified in Local Standard Time (LST). Add 1 hour to adjust for Daylight Saving Time where and when it is observed.

BERENS RIVER CS
MANITOBA

52°21'35.052" N
97°01'19.032" W
221.90 m
5030203
71158
WCF

Download Data

Hourly Data (October 2017)
Hourly Data Report for October 4, 2017
Temp Definition
°C
Dew Point Temp Definition
°C
Rel Hum Definition
%
Wind Dir Definition
10's deg

Wind Spd Definition
km/h
Visibility Definition
km
Stn Press Definition
kPa
Hmdx Definition


Wind Chill Definition


Weather Definition


TIME
00:00 6.8 5.8 93 1 3   99.10     LegendNANA
01:00 6.7 5.6 93 2 2   99.09     LegendNANA
02:00 6.9 6.0 94 13 4   99.01     LegendNANA
03:00 10.0 7.6 85 27 28   99.03     LegendNANA
04:00 8.9 6.3 84 28 28   99.05     LegendNANA
05:00 8.3 5.2 81 27 31   99.05     LegendNANA
06:00 7.5 4.6 82 25 25   98.96     LegendNANA
07:00 7.6 4.8 83 26 28   98.95     LegendNANA
08:00 8.1 4.2 76 24 25   98.86     LegendNANA
09:00 8.7 4.2 73 25 34   98.84     LegendNANA
10:00 8.8 3.7 71 27 34   98.84     LegendNANA
11:00 9.5 4.4 71 27 31   98.84     LegendNANA
12:00 10.0 5.2 72 27 29   98.88     LegendNANA
13:00 11.0 4.2 63 27 27   98.88     LegendNANA
14:00 11.1 3.5 60 27 29   98.86     LegendNANA
15:00 11.2 4.7 64 28 29   98.87     LegendNANA
16:00 11.0 3.9 62 29 29   98.87     LegendNANA
17:00 10.7 3.7 62 30 23   98.90     LegendNANA
18:00 9.6 4.2 69 32 21   98.94     LegendNANA
19:00 7.8 5.2 83 36 8   98.98     LegendNANA
20:00 6.9 4.0 82 34 8   99.01     LegendNANA
21:00 6.9 4.3 84 34 6   99.02     LegendNANA
22:00 5.8 3.2 83 34 5   99.05     LegendNANA
23:00 5.4 3.0 84 32 3   99.07     LegendNANA

Notes on Data Quality.

Legend

  • E = Estimated
  • M = Missing
  • NA = Not Available
  • ‡ = Partner data that is not subject to review by the National Climate Archives
Date modified: